McCall, ID

6:33 AM MST on November 19, 2017 (GMT -0700)
McCall

Weather History for KMYL - February, 2013

Change the Weather History Date:

Sunday, February 3, 2013

  Actual Average Record
Temperature  
Mean Temperature 22 °F 21 °F  
Max Temperature 31 °F 31 °F 46 °F (2000)
Min Temperature 13 °F 11 °F -28 °F (1950)
Degree Days  
Heating Degree Days 43 44  
Month to date heating degree days 122 132  
Since 1 July heating degree days 4975 5606  
Cooling Degree Days 0 0  
Month to date cooling degree days 0 0  
Year to date cooling degree days 0 0  
Moisture  
Dew Point 19 °F    
Average Humidity 83    
Maximum Humidity 92    
Minimum Humidity 73    
Precipitation  
Precipitation 0.00 in 0.07 in 0.68 in (1953)
Month to date precipitation 0.01 0.22  
Year to date precipitation 2.91 1.95  
Sea Level Pressure  
Sea Level Pressure 30.26 in    
Wind  
Wind Speed 2 mph (SE)    
Max Wind Speed 8 mph    
Max Gust Speed 9 mph    
Visibility 6 miles    
Events Fog    
T = Trace of Precipitation, MM = Missing Value Source: NWS Daily Summary

Daily Weather History Graph

Daily Weather History Graph

Search for Another Location

Airport or City:

Trip Planner

Search our weather history database for the weather conditions in past years. The results will help you decide how hot, cold, wet, or windy it might be!

Date:

Astronomy

Feb. 03, 2013 Rise Set
Actual Time 8:01 AM MST 5:56 PM MST
Civil Twilight 7:30 AM MST 6:27 PM MST
Nautical Twilight 6:55 AM MST 7:01 PM MST
Astronomical Twilight 6:20 AM MST 7:36 PM MST
Moon 1:34 AM MST (2/3) 11:34 AM MST (2/3)
Length of Visible Light 10h 56m
Length of Day
9h 54m
Waning Gibbous, 48% of the Moon is Illuminated
Feb 3
Waning Gibbous
Feb 10
New
Feb 17
First Quarter
Feb 25
Full
Mar 4
Last Quarter

Hourly Weather History & Observations

Time (MST) Temp. Windchill Dew Point Humidity Pressure Visibility Wind Dir Wind Speed Gust Speed Precip Events Conditions
12:01 AM 15.8 °F 10.2 °F 12.2 °F 86% 30.28 in 10.0 mi NNW 3.5 mph - N/A   Scattered Clouds
12:51 AM 15.1 °F - 10.9 °F 84% 30.45 in 7.0 mi Calm Calm - N/A   Clear
1:51 AM 14.0 °F - 10.9 °F 88% 30.41 in 6.0 mi Calm Calm - N/A   Clear
3:51 AM 14.0 °F - 10.0 °F 84% 30.38 in 8.0 mi Calm Calm - N/A   Clear
4:26 AM 15.8 °F 10.2 °F 10.4 °F 79% 30.24 in 10.0 mi ENE 3.5 mph - N/A   Scattered Clouds
4:33 AM 15.8 °F 10.2 °F 12.2 °F 86% 30.24 in 10.0 mi NE 3.5 mph - N/A   Mostly Cloudy
4:42 AM 15.8 °F - 12.2 °F 86% 30.24 in 10.0 mi Calm Calm - N/A   Mostly Cloudy
4:51 AM 14.0 °F 8.2 °F 10.9 °F 88% 30.38 in 7.0 mi NW 3.5 mph - N/A   Mostly Cloudy
5:57 AM 15.8 °F - 10.4 °F 79% 30.22 in 9.0 mi Calm Calm - N/A   Overcast
6:21 AM 17.6 °F 12.3 °F 14.0 °F 86% 30.22 in 2.0 mi NE 3.5 mph - N/A   Overcast
6:29 AM 17.6 °F 12.3 °F 15.8 °F 93% 30.22 in 3.0 mi NE 3.5 mph - N/A   Overcast
6:51 AM 19.0 °F - 12.9 °F 77% 30.35 in 7.0 mi Calm Calm - N/A   Overcast
7:27 AM 19.4 °F - 15.8 °F 86% 30.21 in 1.8 mi Calm Calm - N/A   Haze
7:32 AM 21.2 °F - 17.6 °F 86% 30.20 in 0.8 mi Calm Calm - N/A   Mist
7:51 AM 19.9 °F 10.1 °F 15.1 °F 81% 30.38 in 0.5 mi NW 8.1 mph - N/A   Haze
8:15 AM 21.2 °F 13.6 °F 17.6 °F 86% 30.22 in 1.0 mi NE 5.8 mph - N/A   Haze
8:17 AM 21.2 °F 14.9 °F 15.8 °F 80% 30.22 in 2.5 mi ENE 4.6 mph - N/A   Haze
8:23 AM 21.2 °F 16.4 °F 17.6 °F 86% 30.22 in 10.0 mi ENE 3.5 mph - N/A   Overcast
8:51 AM 19.9 °F 13.4 °F 15.1 °F 81% 30.39 in 10.0 mi NW 4.6 mph - N/A   Overcast
9:51 AM 25.0 °F - 19.0 °F 78% 30.36 in 10.0 mi Calm Calm - N/A   Overcast
10:12 AM 24.8 °F - 19.4 °F 80% 30.22 in 10.0 mi Calm Calm - N/A   Overcast
10:24 AM 24.8 °F - 21.2 °F 86% 30.22 in 1.5 mi Calm Calm - N/A   Overcast
10:28 AM 26.6 °F - 21.2 °F 80% 30.22 in 0.8 mi Calm Calm - N/A   Haze
10:51 AM 28.0 °F - 23.0 °F 81% 30.35 in 0.2 mi Calm Calm - N/A   Haze
11:26 AM 28.4 °F - 24.8 °F 86% 30.22 in 1.2 mi Calm Calm - N/A   Haze
11:51 AM 30.0 °F 26.5 °F 24.1 °F 79% 30.36 in 1.8 mi SE 3.5 mph - N/A   Haze
12:01 PM 30.2 °F - 24.8 °F 80% 30.22 in 2.0 mi Calm Calm - N/A   Haze
12:09 PM 30.2 °F 26.7 °F 24.8 °F 80% 30.22 in 5.0 mi SSE 3.5 mph - N/A   Haze
12:38 PM 30.2 °F - 24.8 °F 80% 30.21 in 10.0 mi Calm Calm - N/A   Overcast
12:51 PM 30.0 °F 26.5 °F 25.0 °F 82% 30.34 in 10.0 mi South 3.5 mph - N/A   Overcast
1:10 PM 28.4 °F 22.2 °F 24.8 °F 86% 30.20 in 10.0 mi South 5.8 mph - N/A   Scattered Clouds
1:29 PM 26.6 °F 21.2 °F 24.8 °F 93% 30.18 in 4.0 mi South 4.6 mph - N/A   Mostly Cloudy
1:33 PM 26.6 °F 21.2 °F 24.8 °F 93% 30.18 in 1.8 mi South 4.6 mph - N/A   Mostly Cloudy
1:39 PM 26.6 °F 20.0 °F 24.8 °F 93% 30.18 in 0.8 mi South 5.8 mph - N/A   Overcast
1:51 PM 26.1 °F 20.5 °F 24.1 °F 92% 30.34 in 0.2 mi South 4.6 mph - N/A Fog Light Freezing Fog
2:51 PM 28.0 °F 22.8 °F 24.1 °F 85% 30.30 in 0.5 mi South 4.6 mph - N/A Fog Light Freezing Fog
3:13 PM 28.4 °F 24.6 °F 24.8 °F 86% 30.16 in 1.2 mi South 3.5 mph - N/A   Mostly Cloudy
3:20 PM 28.4 °F 24.6 °F 24.8 °F 86% 30.16 in 3.0 mi South 3.5 mph - N/A   Scattered Clouds
3:51 PM 28.0 °F 24.2 °F 23.0 °F 81% 30.30 in 10.0 mi South 3.5 mph - N/A   Clear
4:51 PM 26.1 °F - 23.0 °F 88% 30.30 in 10.0 mi Calm Calm - N/A   Clear
5:51 PM 24.1 °F 19.7 °F 19.9 °F 84% 30.30 in 10.0 mi WSW 3.5 mph - N/A   Clear
6:51 PM 23.0 °F - 19.9 °F 88% 30.29 in 10.0 mi Calm Calm - N/A   Clear
7:51 PM 21.9 °F - 19.0 °F 89% 30.29 in 10.0 mi Calm Calm - N/A   Clear
8:51 PM 21.9 °F - 19.0 °F 89% 30.29 in 10.0 mi Calm Calm - N/A   Partly Cloudy
9:51 PM 19.9 °F - 18.0 °F 92% 30.27 in 5.0 mi Calm Calm - N/A   Partly Cloudy
10:03 PM 19.4 °F - 17.6 °F 93% 30.14 in 7.0 mi Calm Calm - N/A   Scattered Clouds
10:12 PM 19.4 °F - 17.6 °F 93% 30.14 in 6.0 mi Calm Calm - N/A   Mostly Cloudy
10:42 PM 19.4 °F - 17.6 °F 93% 30.14 in 10.0 mi Calm Calm - N/A   Scattered Clouds
10:51 PM 19.9 °F - 18.0 °F 92% 30.26 in 10.0 mi Calm Calm - N/A   Partly Cloudy
11:42 PM 19.4 °F - 17.6 °F 93% 30.13 in 10.0 mi Calm Calm - N/A   Overcast
11:51 PM 19.9 °F - 18.0 °F 92% 30.25 in 9.0 mi Calm Calm - N/A   Overcast